| time (UTC) | temp F | wind direction | speed MPH | gust MPH | rain 1hr in | rain 24hr in | rain mn in | humidity % | barometer mb |
| 20260505024558 | 72 | 21 | 15.0 | 23.0 | 0.00 | 0.00 | 0.00 | 39 | 1002.0 |
| 20260505023058 | 73 | 35 | 15.0 | 22.0 | 0.00 | 0.00 | 0.00 | 43 | 1000.6 |
| 20260505021557 | 75 | 100 | 2.0 | 7.0 | 0.00 | 0.00 | 0.00 | 45 | 1000.4 |
| 20260505020103 | 75 | 104 | 3.0 | 7.0 | 0.00 | 0.00 | 0.00 | 46 | 1000.3 |
| 20260505014556 | 74 | 114 | 1.0 | 3.0 | 0.00 | 0.00 | 0.00 | 47 | 1000.2 |
| 20260505013102 | 74 | 42 | 4.0 | 8.0 | 0.00 | 0.00 | 0.00 | 47 | 999.7 |
| 20260505011553 | 77 | 33 | 2.0 | 4.0 | 0.00 | 0.00 | 0.00 | 41 | 999.7 |
| 20260505010107 | 79 | 113 | 1.0 | 3.0 | 0.00 | 0.00 | 0.00 | 38 | 1000.0 |
| 20260505004548 | 80 | 81 | 1.0 | 3.0 | 0.00 | 0.00 | 0.00 | 36 | 999.9 |
| 20260505003054 | 82 | 70 | 1.0 | 2.0 | 0.00 | 0.00 | 0.00 | 33 | 999.6 |
| 20260505001548 | 83 | 91 | 1.0 | 5.0 | 0.00 | 0.00 | 0.00 | 31 | 999.6 |
| 20260505000048 | 84 | 85 | 1.0 | 3.0 | 0.00 | 0.00 | 0.00 | 28 | 999.7 |
| 20260504234546 | 84 | 120 | 0.0 | 3.0 | 0.00 | 0.00 | 0.00 | 27 | 999.8 |
| 20260504233100 | 84 | 107 | 1.0 | 4.0 | 0.00 | 0.00 | 0.00 | 27 | 999.9 |
| 20260504231546 | 84 | 285 | 1.0 | 3.0 | 0.00 | 0.00 | 0.00 | 29 | 1000.0 |
| 20260504230051 | 83 | 91 | 0.0 | 3.0 | 0.00 | 0.00 | 0.00 | 31 | 999.9 |
| 20260504224541 | 84 | 149 | 2.0 | 4.0 | 0.00 | 0.00 | 0.00 | 29 | 999.9 |
| 20260504223038 | 83 | 154 | 1.0 | 6.0 | 0.00 | 0.00 | 0.00 | 31 | 1000.1 |
| 20260504221538 | 83 | 135 | 2.0 | 5.0 | 0.00 | 0.00 | 0.00 | 32 | 999.9 |
| 20260504220036 | 83 | 87 | 3.0 | 7.0 | 0.00 | 0.00 | 0.00 | 30 | 999.9 |
| 20260504214534 | 83 | 80 | 2.0 | 7.0 | 0.00 | 0.00 | 0.00 | 32 | 1000.1 |
| 20260504213034 | 84 | 145 | 1.0 | 6.0 | 0.00 | 0.00 | 0.00 | 31 | 1000.1 |
| 20260504211536 | 83 | 172 | 3.0 | 8.0 | 0.00 | 0.00 | 0.00 | 31 | 1000.2 |
| 20260504210034 | 83 | 55 | 4.0 | 8.0 | 0.00 | 0.00 | 0.00 | 31 | 1000.4 |
| 20260504204532 | 83 | 159 | 3.0 | 8.0 | 0.00 | 0.00 | 0.00 | 31 | 1000.6 |
| 20260504203038 | 83 | 159 | 3.0 | 9.0 | 0.00 | 0.00 | 0.00 | 31 | 1000.8 |
| 20260504201525 | 84 | 125 | 4.0 | 8.0 | 0.00 | 0.00 | 0.00 | 30 | 1001.1 |
| 20260504200024 | 84 | 160 | 3.0 | 8.0 | 0.00 | 0.00 | 0.00 | 32 | 1001.2 |
| 20260504194523 | 84 | 189 | 4.0 | 9.0 | 0.00 | 0.00 | 0.00 | 30 | 1001.2 |
| 20260504193021 | 84 | 212 | 5.0 | 10.0 | 0.00 | 0.00 | 0.00 | 31 | 1001.4 |
| 20260504191524 | 86 | 359 | 2.0 | 10.0 | 0.00 | 0.00 | 0.00 | 24 | 1001.4 |
| 20260504190019 | 87 | 79 | 3.0 | 16.0 | 0.00 | 0.00 | 0.00 | 28 | 1001.6 |
| 20260504184518 | 87 | 260 | 1.0 | 5.0 | 0.00 | 0.00 | 0.00 | 23 | 1001.7 |
| 20260504183016 | 86 | 62 | 1.0 | 7.0 | 0.00 | 0.00 | 0.00 | 25 | 1001.7 |
| 20260504181514 | 86 | 55 | 2.0 | 6.0 | 0.00 | 0.00 | 0.00 | 29 | 1001.6 |
| 20260504180011 | 86 | 58 | 2.0 | 10.0 | 0.00 | 0.00 | 0.00 | 30 | 1001.7 |
| 20260504174507 | 84 | 137 | 1.0 | 7.0 | 0.00 | 0.00 | 0.00 | 30 | 1001.9 |
| 20260504173005 | 83 | 28 | 1.0 | 5.0 | 0.00 | 0.00 | 0.00 | 33 | 1002.1 |
| 20260504171502 | 82 | 244 | 1.0 | 8.0 | 0.00 | 0.00 | 0.00 | 34 | 1002.0 |
| 20260504081550 | 61 | 187 | 1.0 | 3.0 | 0.00 | 0.00 | 0.00 | 53 | 1003.0 |
| 20260504044521 | 64 | 125 | 1.0 | 4.0 | 0.00 | 0.00 | 0.00 | 57 | 1004.6 |
| 20260504043019 | 65 | 112 | 2.0 | 6.0 | 0.00 | 0.00 | 0.00 | 54 | 1004.9 |
| 20260504041516 | 67 | 118 | 3.0 | 8.0 | 0.00 | 0.00 | 0.00 | 51 | 1005.2 |
| 20260504040016 | 67 | 77 | 2.0 | 8.0 | 0.00 | 0.00 | 0.00 | 51 | 1005.5 |
| 20260504034516 | 67 | 83 | 3.0 | 8.0 | 0.00 | 0.00 | 0.00 | 52 | 1005.6 |
| 20260504033015 | 67 | 87 | 2.0 | 7.0 | 0.00 | 0.00 | 0.00 | 52 | 1005.9 |
| 20260504031515 | 67 | 60 | 2.0 | 6.0 | 0.00 | 0.00 | 0.00 | 53 | 1005.9 |
| 20260504030015 | 67 | 81 | 0.0 | 3.0 | 0.00 | 0.00 | 0.00 | 51 | 1005.8 |